Location: Newark
(52.3500°N, 175.9667°E)
Time: 21:16:28
(UTC+00:00)

Altair - Pass Details

Date: 27 April 2021
Orbit: 1501 x 1683 km, 47.2° (Epoch: 05 May)

Event Time Altitude Azimuth Distance (km) Brightness Sun altitude
Rises 17:54:55 0° 251° (WSW) 4,896 9.5 8.3°
Reaches altitude 10° 17:58:07 10° 249° (WSW) 3,891 9.0 8.8°
Maximum altitude 18:07:52 64° 171° (S) 1,752 8.0 10.2°
Drops below altitude 10° 18:17:15 10° 93° (E) 3,753 11.8 11.6°
Sets 18:20:17 0° 91° (E) 4,714 12.0 12.1°
